Theta_e
303 303 303 303 304 304 304 305 305 304 304 300 298 302 301 301 297 309 312 313 310 302 291 294 291 292 295 298 297 298 296 295 297 294 296 292 294 295 294 293 292 294 292 293 291 292 290 292 292 296 297 298 302 303 303 302 302 300 297 298 301 304 286 286 288 292 296 298 300 300 300 298 295 295 297 296 292 292 289 288 289 285 287 283 283 281 285
303 303 303 303 304 304 305 305 305 305 304 300 300 298 298 299 300 303 311 313 309 298 284 284 285 292 295 296 295 298 297 296 294 294 295 293 293 294 293 294 295 292 295 293 291 295 285 294 294 292 296 295 302 302 304 305 300 300 298 293 300 288 289 288 281 283 285 288 292 293 297 296 291 290 294 298 298 297 297 294 289 282 286 288 283 279 285
302 303 303 304 304 304 304 305 305 305 305 304 300 296 300 299 304 303 306 309 307 292 295 291 286 290 291 292 291 292 294 297 296 296 294 296 293 293 292 294 294 293 294 293 294 295 292 291 296 296 298 297 300 301 302 303 302 303 304 306 301 290 289 288 280 278 275 276 278 281 283 288 291 294 295 297 297 295 292 285 285 281 286 290 284 285 292
302 303 303 304 304 304 304 305 304 304 304 304 301 301 298 296 285 295 297 300 298 297 299 296 292 288 290 286 291 293 291 295 297 297 296 296 295 293 293 294 295 292 292 291 291 292 295 291 293 294 294 296 300 301 301 302 301 308 310 309 301 291 295 292 287 283 283 284 287 293 293 292 287 291 293 295 297 297 294 286 283 282 285 285 290 291 292
302 303 303 303 304 304 304 305 304 304 304 304 300 301 299 300 289 287 284 295 294 293 294 293 294 288 293 283 291 290 292 293 295 298 292 295 294 294 296 294 291 291 291 291 290 292 292 295 295 295 295 297 298 301 301 302 307 310 304 306 298 293 287 292 294 293 291 293 293 295 294 292 292 291 292 295 295 295 292 286 284 292 284 282 289 294 291
302 302 303 303 304 304 305 305 304 303 303 304 304 298 302 290 293 297 297 290 284 285 286 293 292 294 294 288 293 290 290 291 288 295 296 296 296 292 293 295 295 293 292 293 286 291 291 295 290 298 297 295 297 297 300 299 303 303 300 303 297 293 284 292 293 292 293 294 294 295 294 292 293 292 293 293 295 294 291 290 293 292 282 283 290 294 293
302 302 303 303 304 304 304 305 304 303 302 304 304 297 297 296 297 298 300 290 293 292 294 295 293 291 292 291 292 290 290 289 292 292 293 295 294 295 284 292 293 294 296 294 290 291 285 284 295 294 294 294 294 293 297 300 302 300 299 299 301 296 286 294 294 292 293 292 293 294 293 293 292 293 292 294 294 293 293 293 294 294 292 295 295 293 290
302 302 302 303 304 304 305 305 305 303 302 307 303 297 294 291 291 291 298 297 293 293 292 292 290 287 292 285 290 291 290 289 292 294 293 286 292 295 292 292 294 294 294 292 288 289 292 291 286 296 296 293 296 294 296 293 299 300 297 298 299 294 285 294 295 289 290 292 292 293 292 292 292 293 294 294 294 294 294 292 293 294 293 294 292 289 288
301 302 302 303 303 304 305 305 305 303 303 304 302 297 298 299 300 299 293 288 291 293 292 289 287 284 287 285 289 291 291 291 293 293 296 293 291 292 290 293 294 294 292 291 291 292 292 292 293 295 294 289 298 292 295 299 294 299 299 298 297 294 286 294 291 284 283 291 291 291 292 291 290 290 292 292 290 288 291 288 293 291 289 290 290 286 285
301 302 302 303 303 304 304 305 305 304 303 301 301 297 301 299 301 301 296 288 293 290 291 289 287 282 286 288 289 291 291 293 294 286 295 296 295 294 293 293 294 292 290 289 290 293 294 295 295 296 296 297 297 298 300 299 296 296 295 296 291 294 288 283 284 283 283 289 291 290 289 287 284 285 290 293 292 292 293 296 296 294 292 286 285 285 291
301 301 302 302 303 304 304 305 305 304 303 298 298 299 300 295 294 296 297 287 285 289 289 288 286 288 292 293 290 294 292 293 294 286 285 294 294 296 295 292 289 286 289 291 295 296 297 298 298 298 297 296 296 296 296 300 300 300 296 294 293 295 291 286 289 283 283 289 289 290 282 275 280 291 294 295 292 291 290 290 293 294 293 290 291 290 293
301 301 302 302 303 303 304 305 305 305 303 301 302 301 302 302 300 299 291 285 283 289 287 285 288 292 292 293 293 290 290 291 292 295 289 292 294 295 294 293 291 282 293 297 297 297 298 299 299 298 297 296 297 297 298 296 297 302 300 294 291 290 289 285 291 283 282 285 286 281 275 277 288 294 296 297 295 295 293 293 295 294 294 292 289 289 290
301 301 302 302 303 303 304 305 305 305 305 303 302 300 305 305 301 298 293 287 282 286 283 286 291 295 294 294 293 292 293 295 296 296 296 293 293 293 295 292 291 292 297 295 297 295 292 292 293 294 294 295 295 296 296 295 298 299 299 300 293 287 286 287 284 284 284 283 283 276 277 286 292 295 293 296 296 294 292 290 292 295 293 290 287 288 289
301 301 302 302 303 303 304 305 305 306 306 304 301 302 303 302 299 296 292 287 284 287 289 288 290 290 291 291 293 294 293 294 294 295 292 294 292 290 294 294 294 296 296 297 294 293 288 287 282 286 288 291 290 289 293 295 296 296 297 300 297 295 290 287 284 287 282 282 282 281 287 287 287 286 288 288 285 288 287 282 286 292 291 289 288 288 288
301 301 302 302 303 303 304 304 305 305 305 305 303 305 302 302 302 299 299 294 284 285 288 281 287 290 292 291 290 288 288 290 290 288 294 297 293 295 295 295 296 297 297 293 289 291 286 285 281 280 283 283 279 280 291 288 295 296 294 295 297 295 286 287 285 283 284 282 281 282 281 278 282 288 291 293 294 295 293 289 285 293 292 291 289 288 288
301 301 301 302 302 303 304 304 305 305 305 305 303 303 304 304 304 303 299 292 285 280 284 291 293 292 289 289 291 289 285 284 287 289 290 291 291 293 294 295 296 298 296 295 292 287 284 281 280 280 279 281 287 284 281 289 288 293 294 295 296 295 293 288 284 283 283 282 279 278 276 279 286 288 290 292 294 294 294 288 283 291 292 292 290 289 290
301 301 301 302 302 303 304 304 305 305 305 305 301 303 302 305 303 300 296 295 288 282 291 292 294 292 288 287 289 287 289 284 288 283 283 285 289 291 293 295 296 296 294 290 288 285 282 281 284 282 285 289 283 280 287 287 284 286 291 293 293 291 285 285 284 281 283 281 279 277 281 281 287 291 292 296 294 297 290 280 280 292 294 293 291 290 290
301 301 301 302 302 303 304 304 305 305 305 305 303 302 301 304 305 303 299 293 284 284 289 292 290 286 285 286 286 290 292 290 289 290 286 290 290 290 292 294 291 296 297 286 286 282 281 282 279 280 280 289 290 287 277 285 281 281 282 286 283 285 284 285 282 283 283 283 280 282 283 288 291 290 292 292 295 294 282 278 284 293 294 294 293 292 293
301 301 301 302 302 303 303 304 305 305 305 305 304 305 302 304 305 304 299 293 288 282 290 294 295 291 292 294 291 292 291 290 288 283 282 283 287 292 294 294 294 286 293 284 287 281 280 281 287 284 281 284 289 280 287 281 281 286 285 282 283 283 283 284 283 281 281 282 280 280 282 286 290 292 294 293 290 282 280 290 297 295 293 293 293 292 293
301 301 301 301 302 302 303 304 305 305 305 306 304 300 304 304 307 305 298 293 291 288 291 292 293 290 293 290 286 286 288 288 287 284 282 280 290 292 288 284 290 291 287 288 283 286 282 279 281 286 281 282 285 289 284 284 287 283 283 286 282 282 281 281 280 281 282 281 278 277 275 285 293 294 290 291 283 284 292 294 295 295 293 292 291 292 292
301 301 301 301 302 302 303 304 304 305 305 305 304 301 302 303 305 304 304 299 294 284 288 295 295 293 293 292 293 292 290 286 286 284 286 287 290 287 280 280 286 286 282 283 282 282 283 281 282 282 286 284 284 285 280 281 284 288 287 285 285 288 282 282 282 284 278 277 276 277 284 287 292 290 282 287 290 293 293 293 290 293 292 291 291 292 293
301 301 301 301 302 303 303 304 304 304 305 305 304 303 300 303 306 304 306 303 293 286 291 297 296 294 295 296 297 295 293 293 294 294 288 284 290 287 287 289 289 288 289 289 285 283 286 284 287 282 281 282 286 280 284 280 279 284 288 287 279 288 285 285 282 285 281 280 283 288 290 290 291 292 291 291 292 294 294 293 292 291 291 292 291 291 291
301 301 301 301 302 302 303 303 304 304 304 305 303 300 299 303 302 303 303 298 298 298 300 298 296 296 298 297 298 298 298 298 299 296 294 289 284 287 286 286 286 293 292 291 285 285 286 284 281 285 282 282 282 280 284 282 279 282 280 287 286 291 291 290 287 284 290 291 291 291 290 289 290 292 292 291 292 293 293 292 290 291 292 293 293 294 293
301 301 301 301 301 302 303 303 304 304 304 305 304 299 300 303 301 301 300 299 290 288 289 293 289 283 291 292 295 297 297 296 298 298 299 295 284 284 288 292 294 294 290 292 291 287 285 285 285 287 280 283 285 280 279 279 278 283 284 282 286 287 289 288 282 287 285 280 289 289 288 289 289 289 291 291 292 292 292 292 291 291 292 292 293 293 293
300 300 300 301 301 302 302 303 303 303 304 304 303 303 304 304 301 300 296 288 287 288 284 284 287 294 296 297 297 295 296 298 299 298 300 296 293 288 286 291 296 291 290 292 292 288 284 282 283 281 279 285 286 279 283 280 279 285 280 281 283 282 290 286 287 286 283 284 288 289 290 290 292 290 288 288 290 291 291 291 292 292 292 292 292 293 292
300 300 300 300 301 301 302 303 303 303 303 304 304 300 299 300 301 302 300 299 297 294 286 283 289 299 297 296 295 297 300 299 298 298 298 298 298 296 295 296 296 298 295 296 292 285 283 282 281 281 279 280 287 281 280 284 284 286 283 281 288 288 289 281 287 284 286 289 290 290 290 289 289 290 289 289 290 290 291 291 291 291 291 291 292 292 291
300 300 300 301 301 301 302 302 303 303 303 303 302 301 301 303 303 299 296 295 291 286 287 283 289 294 297 295 297 298 299 297 297 296 296 297 297 296 296 293 292 291 291 288 292 285 284 282 281 281 283 283 287 286 285 281 284 280 280 285 288 286 281 286 286 283 283 283 286 289 284 283 287 289 289 290 292 292 292 292 291 291 290 290 290 290 290
300 300 300 301 301 301 302 302 302 303 303 303 302 302 304 303 302 301 301 300 295 286 286 286 286 291 296 294 297 297 298 297 296 296 295 296 297 299 295 293 291 290 289 285 282 282 281 280 281 282 283 284 283 282 286 285 286 282 282 283 286 284 285 283 281 281 281 288 291 293 290 289 290 291 291 291 292 292 292 292 291 292 292 292 291 290 290
299 300 300 301 301 301 302 302 302 302 303 302 300 301 303 305 302 302 302 304 300 296 290 289 293 293 285 291 297 295 297 297 298 297 297 296 297 296 293 294 289 289 291 285 283 283 282 282 284 281 281 286 284 280 281 279 279 278 281 286 287 287 290 289 288 288 289 292 292 292 289 288 291 293 292 293 294 292 290 290 290 290 291 292 291 290 289
299 300 300 301 301 302 302 302 302 302 303 300 300 299 295 296 302 300 301 303 301 299 288 284 282 284 296 296 296 295 296 297 299 299 299 295 296 292 291 291 288 292 291 285 283 280 282 283 283 288 290 290 281 281 280 279 278 280 286 287 288 290 291 291 291 288 288 293 293 292 291 292 293 292 292 293 293 291 289 288 288 288 289 289 288 288 288
299 300 300 301 301 302 302 302 302 302 302 299 299 290 288 286 296 303 302 303 303 299 289 288 284 288 289 295 295 292 294 296 295 295 296 295 295 293 295 293 290 290 282 283 282 283 283 279 281 286 288 286 285 280 279 277 278 280 285 287 287 287 289 289 290 290 292 292 293 293 293 293 293 292 290 290 291 291 289 289 291 292 290 290 288 288 288
299 300 300 301 301 302 302 302 302 302 300 300 294 292 292 294 298 302 302 303 302 298 289 284 283 283 284 288 296 296 296 298 300 297 294 295 293 295 295 294 288 293 288 284 284 283 281 283 281 284 284 288 285 280 281 279 278 279 285 286 288 288 289 289 290 291 292 293 292 289 288 288 291 289 287 289 289 291 290 289 288 288 290 289 288 288 288
299 300 301 301 302 302 302 303 302 301 298 301 303 303 302 302 302 301 304 302 300 294 296 287 283 283 283 287 294 298 298 295 294 294 290 293 293 292 289 294 294 292 297 287 282 281 285 283 283 280 286 289 280 281 277 278 280 285 287 288 287 288 287 289 289 290 289 289 290 286 285 287 287 289 290 291 291 290 289 288 288 288 287 288 287 287 287
300 300 301 301 302 303 302 302 302 301 301 299 298 300 303 302 301 303 302 301 298 297 292 285 281 281 282 290 288 292 296 289 288 290 283 292 294 291 286 289 291 283 288 283 285 284 284 284 281 282 285 281 282 279 275 280 285 286 287 287 288 287 287 287 287 288 288 288 288 289 289 289 289 288 288 288 288 288 289 289 288 287 286 286 288 288 288
300 301 301 302 302 303 302 301 299 301 298 299 301 300 304 302 302 300 302 300 289 287 285 284 284 282 282 283 282 287 298 293 286 289 284 288 295 289 289 283 284 283 283 291 283 283 282 282 286 281 280 283 280 277 278 282 284 285 286 287 287 287 286 286 288 289 290 288 288 288 288 288 287 287 286 286 288 289 289 287 288 287 286 286 287 287 287
301 301 302 302 303 302 300 301 298 299 299 298 300 304 303 303 304 303 304 305 299 289 285 284 284 282 283 281 280 284 295 290 291 291 290 286 287 293 291 284 281 283 289 285 281 284 281 287 284 279 283 279 279 280 281 284 285 285 286 287 288 289 288 288 288 289 291 292 291 291 290 287 286 287 287 287 288 288 287 286 286 287 287 287 288 288 287
301 302 303 302 301 299 296 293 301 301 298 302 304 303 303 303 305 303 302 300 302 300 290 285 284 283 285 282 284 285 290 281 288 286 287 284 282 284 285 282 280 283 283 282 282 281 283 288 282 279 279 278 280 285 286 286 286 285 285 286 289 290 290 289 290 289 289 290 290 288 288 287 287 287 286 287 287 287 286 285 286 286 286 287 287 287 288
302 303 300 298 298 290 290 292 299 304 303 303 303 302 299 298 289 290 291 290 295 296 288 291 285 287 290 286 281 289 289 283 288 284 284 286 283 282 284 282 281 283 278 280 283 289 285 283 280 279 279 285 286 286 286 287 287 287 287 288 288 290 290 291 290 289 287 287 287 288 288 288 288 289 287 286 286 286 285 286 287 287 287 287 288 287 287
302 299 298 298 295 288 289 297 305 300 302 303 302 292 288 289 287 285 284 285 285 283 287 287 284 288 286 285 285 291 289 284 282 284 281 286 282 279 282 278 282 282 279 279 280 288 279 279 281 280 279 283 284 286 289 288 288 288 289 288 289 289 290 291 291 290 288 286 287 289 288 285 285 286 287 286 286 286 286 286 287 287 288 287 286 286 287
299 296 291 292 290 293 300 302 299 302 300 291 291 288 283 286 283 281 286 283 283 285 286 283 288 289 289 285 284 284 291 287 281 280 282 283 289 281 282 282 283 280 275 276 278 286 278 274 279 278 278 282 283 286 287 288 287 287 288 288 288 289 289 290 292 292 291 291 291 291 290 288 288 288 286 286 285 284 285 286 287 287 287 286 287 286 287
298 298 297 290 298 300 299 301 302 300 292 287 285 284 283 280 284 285 284 281 282 283 289 288 290 288 289 289 288 284 290 293 290 289 285 280 286 286 281 277 283 278 277 277 282 283 281 278 278 275 277 282 284 285 287 287 287 288 289 289 289 289 290 290 291 292 291 291 291 291 290 290 288 287 288 288 287 285 284 284 286 287 286 286 286 286 287
295 294 296 298 299 302 301 297 292 288 285 286 281 278 282 282 284 283 284 281 282 284 285 287 283 285 285 288 288 289 287 292 288 285 283 280 284 281 279 281 282 276 273 281 282 282 281 276 276 277 282 286 287 288 288 287 288 287 288 289 290 289 289 289 290 293 291 291 291 291 291 289 288 288 288 287 288 287 285 285 286 287 287 288 287 287 287
300 300 298 297 296 291 291 286 288 286 278 278 277 277 280 278 280 280 282 285 287 286 286 297 291 293 293 294 290 292 287 292 285 284 283 281 285 283 279 278 278 275 280 284 280 278 275 276 277 279 284 284 286 285 286 286 286 287 288 289 289 290 290 288 289 290 290 291 289 291 291 289 288 289 289 288 288 287 288 287 287 286 285 287 287 287 288
300 300 296 292 288 287 287 277 286 283 280 281 278 275 277 278 280 282 281 282 283 284 288 287 288 287 283 288 287 285 286 289 288 285 283 284 281 279 278 275 277 282 284 280 278 274 276 280 281 282 284 286 288 285 285 285 286 286 287 288 288 289 289 288 289 289 288 289 289 290 290 288 288 289 289 288 289 288 287 287 287 288 287 287 287 288 289
292 288 288 284 281 284 282 272 283 280 276 278 282 280 281 280 282 283 282 285 290 286 289 290 290 288 284 289 289 287 285 283 287 282 279 282 279 280 278 277 281 281 277 274 276 277 278 277 282 284 286 284 284 285 286 286 286 286 287 288 288 288 288 288 289 289 289 290 290 289 288 288 289 288 288 288 289 288 288 287 287 287 287 287 287 288 288
288 285 283 276 272 277 280 277 279 277 282 284 282 285 284 286 286 286 291 293 289 289 287 288 289 288 285 288 284 284 286 285 282 282 283 282 278 277 282 284 282 276 274 275 272 273 275 279 282 282 284 284 284 285 286 286 288 288 288 287 288 288 288 288 289 290 290 292 291 291 289 289 288 288 288 289 289 289 288 288 289 288 288 287 287 287 287
289 287 286 284 278 281 283 279 279 282 285 286 289 288 287 287 288 289 291 292 289 289 289 290 289 288 284 284 284 285 285 285 281 283 283 278 277 281 284 278 272 274 271 270 272 275 278 281 283 284 285 285 284 286 287 287 288 288 287 288 287 288 288 289 289 289 290 291 292 292 291 290 290 290 290 289 289 289 289 289 290 290 289 288 287 288 288
283 287 286 277 275 280 279 281 287 288 291 290 289 290 290 290 288 286 290 291 290 291 290 289 285 284 284 288 287 282 284 284 281 281 282 280 282 278 276 274 273 276 277 274 276 280 281 283 283 283 286 287 287 287 287 287 288 288 288 287 287 289 288 289 290 290 292 291 290 290 290 290 291 290 289 288 288 288 289 289 289 290 290 289 289 288 288
288 285 282 281 283 284 282 286 287 284 287 288 289 288 288 288 288 288 289 290 290 290 290 288 284 284 282 285 283 282 280 284 278 279 282 279 275 272 273 271 272 271 277 281 281 283 283 285 286 286 287 287 287 289 288 288 288 287 288 288 287 288 289 288 289 289 290 290 291 291 291 292 292 291 290 290 288 288 289 290 290 290 290 290 289 288 288
285 284 285 284 283 284 287 287 285 284 285 287 287 286 287 287 287 289 292 291 290 290 289 288 287 284 284 284 281 282 281 283 282 283 279 277 277 279 277 273 275 276 278 282 283 284 284 285 285 285 287 287 288 288 288 290 288 288 288 289 289 289 289 288 288 288 288 290 291 290 291 291 291 290 292 292 291 291 289 290 290 289 289 289 289 288 288
288 286 285 288 284 283 286 282 282 283 285 284 285 286 287 288 288 289 291 292 292 288 286 284 284 283 282 280 279 275 278 283 280 279 279 278 282 280 277 276 279 282 283 284 285 285 285 285 284 284 285 286 287 288 288 288 288 289 289 290 290 289 289 290 290 290 289 289 291 289 290 290 291 292 293 292 291 291 291 291 289 290 289 289 289 289 289
285 282 283 286 290 289 289 288 287 287 287 288 287 289 289 289 291 291 293 291 288 284 284 285 284 281 280 279 281 283 284 282 280 280 277 281 283 279 279 281 282 283 283 283 283 285 285 285 285 285 286 286 287 288 289 290 290 289 290 290 290 289 290 290 290 290 290 289 289 289 290 291 292 292 292 291 291 289 288 289 290 291 291 290 289 290 290
Wind_Speed
21 22 23 24 24 24 23 24 23 20 21 8 6 5 2 2 1 3 6 4 4 3 2 2 2 2 3 8 11 11 11 9 10 14 13 10 5 2 2 3 6 4 5 6 7 5 3 7 2 4 4 6 8 5 1 6 4 3 4 10 4 4 1 1 1 2 2 5 7 5 10 10 9 8 8 13 10 4 4 7 7 4 3 4 2 2 4
21 22 23 23 24 23 22 23 22 18 15 6 6 2 2 4 1 1 2 5 6 1 1 3 4 4 7 7 10 9 10 11 11 11 11 7 4 3 4 6 3 6 8 10 10 3 1 3 4 1 5 3 6 5 3 2 3 5 3 3 5 3 3 3 1 2 5 6 6 4 7 8 2 3 7 10 9 12 4 4 3 3 4 8 4 2 3
21 22 23 23 24 23 22 23 20 17 13 8 2 1 2 3 3 3 2 2 1 2 1 3 4 6 7 7 11 9 7 6 8 12 14 9 6 4 3 7 8 5 7 11 13 6 4 2 5 2 1 2 2 5 8 7 3 1 2 5 1 2 2 2 1 2 1 1 3 3 3 1 2 3 8 13 14 9 6 1 2 2 2 4 6 2 1
21 22 23 23 24 24 23 22 21 19 13 8 2 2 2 2 1 2 2 3 6 3 3 3 3 3 5 7 7 9 8 9 8 9 12 9 6 4 5 5 6 6 8 7 8 10 8 7 2 2 1 2 0 1 8 5 3 4 4 3 5 1 3 3 1 2 2 4 4 2 3 2 6 6 10 10 10 10 6 3 2 3 3 4 1 10 10
22 22 22 23 23 24 24 24 23 22 16 7 3 2 2 3 2 1 2 1 6 3 5 4 2 2 3 2 6 8 9 7 7 10 4 5 5 5 1 3 5 4 6 4 5 4 9 9 9 11 4 2 1 7 8 8 9 10 5 8 2 2 1 1 1 1 2 5 4 5 5 4 3 7 8 12 12 8 11 5 2 5 3 3 2 11 10
22 22 22 22 23 24 24 24 26 26 23 10 4 1 2 1 1 1 2 2 2 3 3 4 2 3 3 0 3 6 9 10 5 10 7 17 5 2 5 8 13 14 5 7 5 9 5 8 4 8 9 7 3 3 4 5 9 12 4 3 2 2 1 4 3 4 3 5 6 4 3 2 1 6 6 12 11 13 9 3 6 4 3 6 3 8 8
22 22 22 22 23 24 25 26 27 28 28 13 5 1 3 2 1 2 3 2 1 2 0 2 3 2 5 0 6 7 7 7 5 2 6 9 11 12 3 6 10 12 8 6 3 8 5 5 3 2 4 4 5 4 5 6 10 10 9 5 7 4 1 3 5 3 2 2 6 6 6 2 3 2 5 9 11 8 6 3 9 9 8 14 13 15 13
21 21 22 22 23 23 24 25 26 28 30 13 2 5 3 4 3 2 4 1 3 3 1 2 4 5 7 2 5 7 7 5 7 5 3 2 5 8 4 8 8 11 9 9 6 4 3 3 3 3 2 3 0 1 1 1 4 7 4 3 8 5 3 7 3 4 2 3 6 6 7 6 1 2 5 9 8 9 5 4 7 9 12 10 11 16 11
21 21 22 22 22 23 23 25 25 26 25 6 6 3 4 2 3 2 2 4 1 1 3 4 4 3 4 3 4 4 9 7 7 4 9 8 5 10 10 9 3 8 9 9 8 9 7 6 6 6 5 2 3 1 1 1 4 5 3 4 4 4 2 6 8 6 4 2 3 5 7 7 7 9 8 5 6 6 3 3 0 6 6 7 8 9 5
21 21 22 22 22 22 22 23 23 23 19 3 4 4 5 4 3 4 2 1 5 0 5 3 3 4 1 1 4 3 9 10 10 3 6 11 10 9 10 11 5 3 8 9 8 10 10 8 7 6 5 6 8 4 5 6 6 5 3 2 4 2 3 3 1 2 3 13 6 5 7 6 4 6 7 6 3 9 8 7 7 5 10 7 4 6 4
20 20 21 21 22 22 22 22 20 20 12 6 4 3 4 5 5 4 1 1 3 6 3 3 4 1 2 5 3 3 4 8 6 6 2 7 9 9 8 7 6 3 4 7 12 10 10 10 8 6 6 6 7 8 3 9 5 6 7 4 1 1 5 4 1 3 3 6 12 3 4 3 1 4 8 8 4 8 10 4 5 3 2 6 8 9 5
20 20 20 21 21 22 22 21 20 18 11 4 3 3 3 4 3 2 0 1 3 7 5 3 1 2 1 4 4 4 5 5 5 4 2 2 5 6 6 5 4 3 5 10 9 10 13 13 13 10 9 8 8 9 3 3 4 5 6 8 4 5 5 3 2 3 2 6 7 7 1 1 2 9 9 10 12 12 11 7 8 14 17 16 14 12 11
20 20 20 21 21 21 22 21 20 19 18 9 2 2 4 5 3 3 2 3 4 5 6 5 5 1 2 1 3 5 5 4 3 5 2 2 4 4 3 3 3 5 8 10 12 11 7 4 4 3 5 8 7 2 10 10 11 7 7 6 6 4 7 3 2 4 2 3 2 2 2 0 5 3 11 12 6 6 9 11 9 6 11 16 12 10 11
19 19 20 20 21 21 21 21 21 21 19 13 6 3 3 6 5 4 3 2 3 5 5 4 10 9 10 2 1 1 4 3 2 3 1 1 1 4 3 5 4 6 6 7 7 5 3 3 2 3 6 6 4 5 10 5 10 11 7 2 3 4 3 3 3 1 3 2 3 1 1 1 7 5 7 7 3 5 2 4 6 6 7 13 14 12 11
19 19 20 20 21 21 21 21 21 22 21 20 4 4 4 5 3 1 2 1 1 4 6 6 7 8 7 7 7 6 5 5 6 4 1 2 1 2 2 3 4 5 7 4 3 2 1 0 3 3 3 5 3 2 3 3 2 8 12 9 2 3 1 2 4 1 3 4 3 2 0 1 0 2 5 5 3 3 9 4 4 5 7 10 15 15 13
19 19 19 20 20 20 21 21 20 20 20 21 6 5 3 4 2 0 0 1 2 5 7 5 7 6 5 7 10 7 6 4 7 7 3 1 3 2 3 4 3 4 4 3 2 2 1 3 1 4 1 1 2 1 2 2 3 6 7 12 12 10 11 8 3 1 2 3 4 1 1 1 1 6 3 7 4 8 9 5 4 2 7 7 13 12 10
19 19 19 20 20 20 20 20 20 20 18 18 7 5 3 7 5 5 2 2 6 4 5 8 5 5 5 6 8 7 6 5 7 4 3 4 6 8 9 7 8 4 5 3 3 4 4 2 2 2 1 3 1 1 2 1 3 6 9 6 10 8 6 7 6 3 1 2 2 2 2 2 4 6 3 2 6 3 4 4 1 3 5 5 8 10 8
18 18 19 19 20 20 20 20 20 20 21 22 10 3 3 5 5 6 2 2 3 3 4 7 6 6 5 4 3 4 4 5 7 4 3 6 5 7 9 5 8 7 8 3 3 3 3 0 3 2 3 2 1 2 2 0 1 1 2 1 4 4 2 2 2 2 3 4 2 3 2 1 3 5 8 4 2 1 3 3 1 2 8 7 7 7 4
18 18 18 19 19 20 20 19 19 20 19 20 12 4 2 5 6 7 3 3 4 4 5 7 6 6 5 4 4 4 5 5 4 3 6 7 4 14 11 7 5 4 7 4 3 2 3 4 2 2 2 2 2 1 0 2 0 2 6 6 4 3 1 1 2 5 2 2 4 2 1 3 5 8 4 4 1 4 4 1 3 7 10 9 10 9 7
17 18 18 18 19 19 20 20 20 19 19 20 10 2 7 5 5 6 5 3 1 4 3 4 6 8 4 6 5 6 6 6 6 4 4 4 10 12 7 7 7 4 7 5 6 4 3 4 3 1 3 1 1 0 1 6 7 4 2 3 3 1 1 2 2 2 1 2 3 1 1 2 4 5 4 9 5 1 2 5 6 7 9 9 9 9 8
16 17 17 17 18 19 20 20 20 20 20 22 13 3 4 5 6 6 3 2 1 3 2 2 5 6 4 5 4 6 6 6 5 5 5 3 7 3 4 3 6 3 3 4 5 4 3 5 5 3 3 2 3 2 1 1 3 5 3 3 3 4 2 2 1 1 2 2 2 1 1 4 10 8 5 2 1 1 6 9 10 8 6 6 7 8 8
16 17 17 17 17 19 19 20 20 19 19 20 17 5 3 6 6 7 8 4 1 2 2 1 3 4 4 4 1 3 5 5 4 2 3 5 5 5 1 3 5 3 1 2 2 2 4 2 2 3 5 4 3 3 6 5 3 1 5 4 3 3 5 2 4 3 2 2 3 4 7 6 6 7 7 6 7 9 9 11 9 8 7 5 9 8 8
16 16 17 17 17 17 18 19 19 19 18 19 13 3 2 6 7 7 5 3 0 1 0 2 3 4 2 6 4 5 3 3 2 4 3 3 3 4 6 4 4 3 1 1 2 1 3 2 2 0 2 3 4 3 8 5 2 3 3 3 6 6 10 8 8 8 10 9 9 9 8 9 10 10 8 9 10 11 10 11 11 8 8 6 8 8 10
15 16 17 17 17 17 17 18 18 18 19 17 9 3 3 5 5 7 7 2 3 1 3 6 4 2 1 5 3 3 4 3 3 3 3 4 4 3 1 1 0 2 2 4 2 1 3 0 2 2 4 3 4 5 4 5 3 2 4 3 1 3 3 3 6 5 5 3 4 8 9 7 9 9 9 8 8 7 7 9 9 8 8 9 8 9 9
15 15 16 16 16 16 17 17 17 18 18 18 15 5 4 2 3 5 4 3 4 2 1 1 1 3 2 4 1 3 3 3 3 4 2 5 4 2 1 3 1 1 4 6 3 5 2 4 5 4 4 2 4 2 4 3 3 3 5 3 3 3 3 7 4 3 4 5 5 5 5 5 7 7 7 7 6 8 7 7 7 8 7 7 7 6 8
14 15 15 16 15 16 17 17 17 17 16 18 11 4 3 4 3 4 1 1 2 1 0 1 1 0 1 2 3 6 4 5 5 4 4 3 2 1 3 3 2 2 3 3 2 5 3 3 3 3 3 3 3 2 2 3 5 3 8 4 1 1 4 2 2 5 6 8 6 4 5 9 8 7 6 6 6 7 7 8 9 9 9 8 8 7 6
14 14 15 15 15 16 16 17 17 16 16 16 9 5 4 6 3 6 3 2 2 1 5 1 0 1 2 4 2 4 5 6 5 5 4 4 4 4 4 6 5 5 5 6 1 4 3 3 4 3 2 1 2 2 1 4 6 3 4 4 5 7 6 3 7 8 4 3 6 6 5 4 4 5 5 6 6 7 9 8 8 7 7 7 8 6 6
14 14 15 14 14 15 16 17 16 16 15 15 8 6 5 2 4 6 5 5 4 1 1 2 2 0 2 4 3 4 4 4 3 3 4 3 3 2 4 4 5 5 5 5 5 4 4 6 4 2 1 2 5 4 4 2 5 5 4 3 2 5 2 3 3 3 2 4 4 2 7 5 5 5 5 7 6 6 8 8 8 7 6 6 7 5 4
13 14 14 14 14 15 16 16 16 15 16 11 6 6 4 2 5 6 6 5 3 0 2 3 2 0 1 1 2 2 4 4 3 2 3 4 4 4 5 5 6 5 3 2 1 3 3 3 1 2 1 1 1 2 4 4 2 3 0 1 3 4 7 9 9 9 4 0 4 7 7 7 7 5 4 4 3 6 7 5 6 6 7 8 7 5 4
14 14 15 15 15 16 16 15 15 14 14 6 2 1 0 2 3 5 4 3 3 1 1 3 2 1 1 2 2 4 2 4 2 3 3 4 2 4 4 4 4 5 2 2 3 3 1 2 1 1 1 1 1 1 2 2 4 3 3 7 6 7 7 7 6 6 4 5 7 4 5 5 7 9 9 9 10 9 8 8 7 6 7 6 6 5 5
14 15 15 15 16 16 16 15 13 13 10 3 1 0 0 0 1 3 7 5 4 1 0 1 2 1 2 1 0 3 4 3 2 1 4 4 1 2 1 3 3 4 5 6 3 2 1 2 1 1 0 3 2 2 2 3 3 3 5 5 5 5 5 6 6 7 7 7 6 5 5 6 6 8 6 6 7 8 5 4 5 6 6 5 5 4 5
14 15 15 16 16 16 15 14 12 9 5 3 3 1 1 1 2 6 7 6 4 1 0 2 1 1 0 1 0 1 2 2 0 1 2 3 2 3 2 3 1 1 2 1 1 1 1 0 2 2 2 3 2 1 2 3 3 2 3 7 5 6 7 5 4 4 5 4 5 6 4 5 5 7 5 6 8 7 8 6 4 4 6 5 4 4 4
14 15 15 16 16 16 14 12 9 5 2 5 8 8 10 11 9 8 5 4 1 1 1 0 1 1 1 2 1 1 2 2 1 3 1 2 1 1 0 0 2 1 1 2 2 1 1 0 1 2 1 1 2 1 2 2 2 5 8 7 7 5 5 5 5 6 6 8 9 6 3 3 4 5 7 6 6 7 6 6 6 5 5 6 5 5 5
15 15 16 15 16 14 11 9 8 6 5 2 1 2 2 2 5 6 4 1 1 1 0 0 1 1 0 2 1 2 2 2 2 1 1 3 1 1 1 1 0 2 3 2 0 1 2 3 3 1 1 1 0 2 2 2 5 6 7 7 7 6 4 4 4 6 6 7 5 6 5 4 4 3 4 4 5 4 6 7 5 4 4 2 3 6 5
16 15 15 15 13 11 10 6 2 1 1 3 0 1 0 1 3 5 3 1 2 1 0 1 0 0 0 0 1 2 2 2 2 2 2 1 0 2 1 3 2 1 2 0 2 2 2 1 1 2 1 0 1 1 2 4 5 4 4 5 5 5 4 3 4 5 5 4 4 3 4 5 5 1 4 3 2 3 4 4 2 4 5 4 4 5 6
15 15 14 13 12 7 2 2 1 1 1 0 0 1 1 4 5 3 3 2 1 0 0 1 0 1 1 3 0 1 2 1 2 1 1 0 2 1 1 1 2 2 1 1 1 2 1 2 1 1 0 2 2 1 3 5 6 6 7 4 2 5 5 6 6 4 5 6 7 4 5 5 3 1 1 2 4 4 4 4 3 3 3 4 6 6 6
15 14 13 10 4 1 1 1 1 0 1 2 3 6 8 5 2 1 1 1 1 0 1 0 2 2 1 2 0 1 2 1 1 1 2 3 1 1 1 2 1 1 2 1 3 2 2 0 3 0 2 1 2 2 7 6 5 5 4 3 4 3 3 4 7 5 3 5 6 2 1 2 5 2 3 3 6 6 5 4 4 3 3 3 4 4 5
13 8 2 1 1 0 1 0 0 1 4 6 5 2 0 1 0 0 0 1 1 2 1 1 1 3 2 4 2 2 0 2 3 2 1 1 1 1 1 1 1 1 3 1 0 1 1 0 1 1 4 6 5 7 6 6 5 5 4 5 5 7 3 8 7 6 3 2 3 1 1 3 3 1 1 4 6 6 5 5 4 2 2 4 5 5 4
2 0 1 2 1 1 0 1 1 2 2 3 0 0 1 0 0 0 1 1 1 1 2 1 2 3 4 4 1 2 2 1 2 2 2 1 1 1 1 2 1 1 1 1 3 3 2 2 0 1 3 1 4 3 4 5 5 4 5 5 5 5 5 2 6 7 5 2 3 5 4 3 4 5 4 3 4 5 5 4 3 2 2 4 5 4 3
1 1 1 1 0 0 1 2 3 1 1 1 0 0 0 0 0 1 0 0 0 0 1 1 1 1 1 2 1 1 4 3 3 2 1 1 1 1 1 0 0 1 1 1 1 2 1 2 1 2 3 2 3 4 5 5 5 5 5 4 4 5 5 4 1 4 2 1 3 5 4 5 5 3 2 3 4 5 5 4 3 3 4 4 5 5 4
1 2 1 1 2 1 1 1 1 0 0 1 0 0 0 1 1 0 1 1 0 0 0 1 0 1 1 3 5 2 3 1 1 0 1 1 2 0 1 0 1 1 0 2 1 0 0 0 1 2 0 1 3 4 5 5 6 6 6 5 4 5 5 6 5 2 4 1 1 3 6 4 4 3 2 2 1 2 5 5 5 5 5 6 5 4 3
1 2 2 4 5 5 0 0 0 0 0 0 0 0 0 1 0 1 0 0 0 0 2 1 3 2 2 3 1 2 0 1 1 0 0 1 2 1 0 1 1 1 0 0 1 1 0 0 1 2 1 3 4 5 5 5 5 5 6 8 5 4 5 5 8 4 4 5 6 4 3 5 4 1 1 3 1 3 4 5 3 4 6 5 6 4 4
13 8 3 3 1 0 0 1 1 0 1 1 1 1 1 0 1 1 1 0 0 1 1 1 2 1 2 1 1 2 1 0 1 0 0 0 1 0 1 1 0 0 0 1 1 0 1 1 1 2 1 3 1 4 4 4 4 5 5 6 6 4 2 4 4 4 2 4 3 3 2 4 2 0 2 3 2 4 2 2 1 3 3 1 1 2 7
6 2 1 1 0 0 0 0 0 1 1 0 1 1 1 1 2 2 1 1 0 2 0 1 1 2 0 1 1 0 1 1 0 0 1 0 0 0 0 0 1 0 0 0 0 1 0 2 3 2 1 2 3 4 4 4 5 5 5 5 5 6 7 4 3 5 3 4 1 3 2 4 3 1 2 2 1 3 5 3 1 0 2 3 3 4 6
1 0 1 1 1 0 0 2 2 0 1 1 1 1 2 1 2 4 2 1 1 2 1 2 2 1 3 1 1 1 1 0 0 1 0 0 1 0 0 1 1 1 0 0 1 1 0 3 3 3 3 3 2 2 4 4 4 3 2 2 4 5 5 5 4 2 3 4 3 4 3 2 0 2 2 3 2 3 7 5 5 3 3 4 4 4 3
0 1 1 3 3 3 0 1 1 1 2 1 3 2 3 6 4 3 2 2 2 1 2 3 5 4 2 1 2 1 0 0 0 0 0 1 0 0 1 0 0 1 1 1 1 1 3 0 1 3 2 2 1 3 4 4 4 5 5 2 1 3 3 4 3 4 2 0 3 3 2 2 1 1 2 1 1 0 3 4 7 7 6 5 4 3 3
2 0 0 0 1 1 0 1 3 3 2 2 1 7 7 5 4 3 1 3 4 4 5 2 1 3 2 1 2 1 1 1 0 0 1 0 0 0 1 2 0 0 0 1 1 0 1 3 1 1 4 4 4 4 3 1 1 1 1 3 3 2 4 4 4 4 1 1 3 5 2 1 1 0 0 1 2 0 1 1 1 1 2 3 4 4 5
0 1 0 1 1 1 2 3 2 3 1 4 5 5 6 4 4 4 4 3 4 5 4 2 3 2 1 1 1 0 0 1 0 0 1 0 1 0 1 1 0 1 0 0 1 2 3 0 3 3 3 3 2 1 1 2 2 3 4 4 5 0 1 0 0 1 2 1 1 0 2 6 7 4 1 3 4 4 3 3 2 1 2 3 4 1 1
1 0 0 1 1 1 2 5 4 3 4 4 4 4 3 5 6 5 4 4 6 5 4 2 1 0 0 0 0 0 0 1 1 0 0 1 1 0 0 0 0 1 1 2 0 3 3 4 4 2 1 1 2 3 3 1 1 3 4 3 4 3 1 2 2 2 4 3 3 3 2 2 5 4 8 7 5 5 4 5 5 4 2 2 3 4 2
0 0 0 1 2 2 5 0 7 4 5 4 2 4 8 7 5 3 3 2 2 1 3 2 2 1 0 0 0 1 1 1 0 1 0 0 1 0 1 2 2 1 2 2 2 3 3 3 3 1 1 1 1 1 2 1 3 4 4 4 4 4 3 3 4 4 4 4 6 4 5 4 4 2 2 6 5 5 2 2 5 4 4 4 5 4 3
0 0 1 1 1 3 5 1 1 2 5 3 2 3 5 5 3 1 2 1 3 3 0 0 0 0 0 0 1 0 0 1 1 0 1 1 1 0 1 2 0 1 1 2 4 3 2 3 4 3 2 2 3 3 2 3 4 3 3 5 5 5 3 4 4 5 6 5 3 7 7 6 6 7 4 4 3 3 5 8 2 2 4 5 4 4 4
0 1 1 3 6 6 3 3 2 6 7 6 5 2 4 5 2 2 1 2 2 1 1 1 0 0 1 1 0 0 1 0 0 1 1 1 1 1 0 1 1 2 2 2 2 2 2 3 4 3 2 2 4 4 3 2 2 2 4 3 3 3 2 3 2 1 2 2 1 5 4 4 5 5 3 2 2 3 2 0 2 5 5 4 3 4 5
Wind_Direction
341 341 341 342 343 342 341 340 340 342 344 355 355 315 282 222 284 180 161 161 157 209 266 297 309 257 294 305 285 291 290 296 308 312 310 302 276 350 320 318 344 350 347 308 280 312 307 300 69 187 120 174 197 202 61 350 4 53 347 358 302 347 46 60 304 23 13 352 0 343 51 41 9 10 21 31 12 320 193 177 179 142 305 50 352 55 250
342 342 342 343 342 341 338 338 340 342 354 337 304 297 297 321 312 288 165 172 206 133 42 315 310 322 318 319 317 306 290 297 300 292 297 307 323 350 346 335 349 319 337 324 298 289 348 307 103 176 129 173 206 171 232 31 6 70 227 111 277 352 302 94 13 6 349 349 357 5 23 41 69 29 13 37 26 29 5 76 67 84 210 148 123 185 231
344 344 344 342 343 339 336 336 336 339 340 334 320 312 309 273 268 193 263 235 132 33 34 5 339 340 333 336 315 308 297 286 313 335 314 312 315 352 347 345 332 325 341 326 308 253 267 322 37 105 141 92 192 180 168 133 122 70 89 192 321 83 261 7 103 139 127 256 206 219 334 2 306 34 28 40 35 9 30 61 4 84 293 109 118 103 141
347 346 345 342 342 338 334 334 333 334 341 326 232 261 312 312 8 323 49 14 33 52 58 56 28 350 348 332 294 318 319 324 320 339 313 295 317 313 337 318 341 319 323 321 332 340 326 282 204 167 274 102 181 194 143 99 132 52 60 99 105 89 255 240 146 146 187 199 171 221 150 63 53 1 37 36 44 37 56 91 93 177 181 97 189 149 138
348 347 346 343 342 338 336 335 334 333 339 329 208 245 217 304 49 356 348 328 42 352 33 354 20 27 354 337 337 323 325 333 323 6 330 350 352 327 347 328 337 325 333 302 323 335 338 0 32 1 331 14 56 59 54 91 47 49 27 337 86 171 41 296 305 291 164 139 131 117 92 89 85 57 34 44 43 53 58 56 242 272 103 64 316 135 116
349 349 347 345 343 341 339 339 338 337 336 338 189 284 203 123 328 58 180 122 294 10 357 339 42 55 59 172 275 317 360 4 7 342 325 311 285 45 348 17 357 333 354 20 7 345 346 43 5 9 7 357 356 36 16 90 54 25 5 360 20 301 148 274 219 271 136 159 122 109 88 111 111 67 51 52 45 44 53 358 306 286 138 157 137 104 99
351 350 348 347 345 344 343 342 343 342 335 340 180 28 4 63 121 52 344 87 228 152 189 359 30 67 357 172 341 337 6 24 36 134 306 313 5 351 30 4 13 344 7 52 70 15 27 351 1 21 4 24 353 1 340 12 34 36 26 19 30 331 87 326 316 179 245 196 143 139 133 98 26 48 81 81 71 53 45 16 3 41 79 117 114 88 66
352 351 349 348 347 348 346 347 350 345 340 336 100 56 31 21 360 345 327 280 183 191 180 54 28 61 1 34 338 321 357 20 355 21 237 360 339 327 17 11 30 355 20 35 45 360 18 351 343 322 348 348 40 299 118 229 10 57 54 32 6 12 321 338 354 346 261 220 134 118 94 67 64 321 142 95 90 75 60 36 12 49 57 32 66 92 77
353 351 350 348 348 350 348 352 353 350 347 29 4 32 26 331 26 334 349 327 282 189 89 53 53 42 353 30 325 327 353 17 13 345 24 22 34 12 11 17 17 18 22 27 16 350 346 332 312 312 334 310 259 151 297 130 87 45 26 35 346 49 295 18 30 12 314 29 90 87 89 87 65 28 18 46 84 77 35 58 310 104 92 57 63 62 81
354 353 350 348 349 350 350 353 354 356 343 40 343 2 327 360 350 16 353 293 271 124 95 95 70 20 262 328 310 352 351 6 13 6 2 6 13 15 9 6 16 12 22 13 343 322 312 307 301 296 281 261 279 246 165 169 141 136 118 138 132 176 116 70 70 57 337 336 333 104 88 62 34 351 324 338 80 109 86 64 72 116 126 84 89 109 106
355 354 351 349 349 349 351 353 354 1 4 28 348 315 334 28 327 327 38 87 313 11 93 84 98 222 267 8 337 16 1 356 9 22 339 349 349 9 6 15 5 344 6 330 308 298 298 293 283 267 270 280 279 292 225 205 167 144 143 121 198 154 105 118 138 89 285 346 350 12 65 68 24 282 291 264 177 103 88 82 102 116 59 128 124 119 102
356 354 352 350 349 350 350 352 351 357 10 321 264 262 291 343 290 265 189 177 17 6 18 79 123 214 269 40 10 2 1 348 16 342 15 317 317 5 1 354 28 336 314 307 305 311 300 276 254 244 257 262 265 272 287 337 69 118 136 131 136 104 86 98 99 98 336 332 20 45 37 134 268 307 339 42 84 82 92 83 84 100 98 100 102 104 106
356 355 353 351 350 350 350 350 351 353 357 348 291 269 317 352 9 348 1 35 42 17 11 18 20 14 27 231 24 351 360 327 15 323 36 4 321 9 358 326 334 317 312 306 312 307 307 317 308 281 234 218 230 212 23 27 46 40 32 65 105 119 105 144 60 117 81 51 81 111 223 212 329 297 19 1 36 44 63 53 24 63 106 114 108 114 112
356 355 355 353 351 351 351 350 350 350 352 357 335 306 315 13 17 360 40 47 16 26 7 16 2 347 331 35 43 246 291 291 305 316 15 300 28 357 332 339 327 297 300 303 298 309 349 18 28 10 2 8 20 35 332 48 38 49 14 334 70 127 75 93 115 135 129 144 89 118 15 34 6 358 11 11 22 345 347 112 14 42 106 113 118 117 118
356 356 356 354 352 352 352 352 351 351 352 355 315 313 353 10 33 3 303 170 140 49 28 26 330 335 349 24 5 9 349 328 347 303 297 218 97 155 322 306 294 300 295 323 331 339 96 69 28 29 2 34 42 296 319 31 339 40 29 5 85 69 113 219 104 275 118 128 104 94 130 169 307 359 314 343 350 342 328 101 76 73 91 113 122 131 136
356 355 356 354 353 352 353 352 353 352 355 352 354 348 312 349 329 307 175 278 76 45 345 6 355 350 12 12 0 11 346 347 357 326 309 20 33 10 17 314 299 279 306 340 293 337 36 74 37 68 43 106 223 22 334 4 351 4 34 35 32 34 45 29 100 122 52 74 122 148 139 142 251 299 318 313 338 19 336 80 74 98 125 134 130 133 141
355 355 355 354 352 353 353 353 353 354 355 2 340 326 318 353 12 347 1 355 75 73 8 17 13 14 18 3 357 3 356 24 340 348 343 4 23 360 349 343 346 341 10 36 356 31 15 30 87 141 210 344 58 179 215 14 13 339 349 29 59 41 20 33 21 61 2 116 69 99 37 64 303 317 308 337 327 20 39 82 158 102 108 112 115 129 139
355 355 356 354 353 352 354 354 356 354 356 355 358 323 302 337 359 0 353 79 89 48 2 31 31 26 26 4 6 345 1 359 352 331 19 325 9 353 327 352 347 2 358 51 349 40 350 135 97 95 86 291 272 347 83 321 70 270 347 66 43 13 8 41 328 149 90 84 100 101 140 321 312 297 296 295 305 13 65 163 180 72 82 91 107 113 130
356 356 355 355 352 352 353 355 356 356 356 358 343 326 306 348 3 36 27 21 62 61 13 41 54 57 25 28 24 16 23 15 359 19 332 348 351 321 308 94 11 350 354 358 3 69 32 358 37 96 101 319 10 83 129 63 236 64 43 30 36 22 352 19 32 33 62 86 76 92 81 248 253 286 275 328 60 83 145 114 128 103 89 88 96 95 81
356 356 356 355 353 353 353 354 355 356 356 357 1 298 274 318 25 51 57 7 323 83 13 51 36 53 53 42 17 22 357 25 20 24 17 334 302 326 16 5 349 17 356 17 25 331 53 358 337 7 65 128 311 193 43 56 46 37 58 69 100 270 59 77 29 318 27 55 105 99 74 324 310 292 7 6 86 54 69 101 85 94 100 96 87 85 79
356 356 356 355 354 354 354 354 355 356 357 355 355 331 325 354 5 12 62 65 301 87 12 33 78 62 45 66 44 32 38 37 19 10 328 304 290 342 61 12 333 345 17 1 15 339 1 354 352 6 17 60 331 56 20 136 62 11 74 113 73 345 84 48 53 297 111 66 61 121 349 9 3 57 100 11 72 77 83 89 75 50 60 80 91 80 81
356 356 356 356 355 355 354 354 353 354 357 358 353 340 357 337 349 5 336 347 106 145 216 228 120 124 99 55 113 109 71 20 59 43 12 337 336 57 83 11 358 2 26 341 24 352 357 327 357 35 21 352 358 44 333 68 50 325 24 55 59 349 93 83 87 338 84 113 138 83 72 68 40 64 84 72 51 64 79 81 73 73 51 54 75 68 60
355 355 354 355 355 354 354 353 352 351 354 357 3 26 305 322 339 337 344 334 310 17 276 300 39 31 47 81 48 360 103 89 89 56 39 41 346 30 51 15 350 324 5 61 116 236 267 13 305 115 55 40 355 327 38 67 95 23 72 42 133 104 106 97 83 67 74 71 81 94 74 70 68 58 62 64 62 59 65 80 86 70 74 62 76 76 70
353 352 352 353 353 352 353 351 351 349 349 350 358 314 321 310 309 350 351 335 74 10 352 358 62 332 340 41 359 38 8 64 71 124 90 80 71 349 347 66 263 345 345 305 234 240 268 96 280 32 75 350 6 43 38 24 20 5 48 11 37 62 79 78 100 163 100 84 60 86 104 98 83 79 66 63 64 69 76 79 80 89 81 76 71 80 92
350 350 349 350 349 350 349 350 349 347 346 348 346 301 262 282 347 17 24 18 345 23 123 315 33 234 17 71 331 58 50 13 45 61 75 77 77 86 19 269 206 176 279 287 336 24 12 48 14 28 65 351 52 18 21 84 1 58 85 5 13 340 60 76 63 79 83 128 117 94 88 98 98 92 86 77 71 67 66 78 80 79 69 68 68 68 74
347 347 347 346 346 346 347 346 346 344 343 342 345 326 331 312 347 7 31 29 273 186 162 131 157 10 38 75 55 69 43 39 352 52 39 50 94 295 285 325 6 191 233 294 14 32 18 37 45 48 65 318 41 67 2 39 112 57 84 30 325 64 25 106 141 96 84 89 106 118 94 73 77 87 90 101 107 105 92 83 82 77 74 68 57 57 71
344 344 343 343 343 342 343 342 342 342 340 341 334 317 311 304 13 45 42 323 11 360 15 33 266 159 69 67 44 64 49 44 358 6 27 29 28 5 17 10 13 350 7 349 358 70 37 55 64 14 31 287 338 294 65 6 49 50 37 355 355 48 37 35 85 109 128 165 153 149 123 124 103 110 131 128 119 111 107 102 92 91 90 82 80 62 54
341 340 339 339 339 340 340 338 338 338 339 333 315 292 279 299 55 30 7 8 65 132 209 277 326 235 307 14 33 87 63 73 18 6 350 6 35 24 18 19 21 10 350 40 19 34 49 49 3 305 62 348 33 338 326 110 81 44 44 2 31 88 81 98 85 121 160 129 143 174 123 122 137 147 132 125 143 139 136 125 125 131 128 126 118 112 95
335 335 336 335 336 337 336 334 334 335 334 332 304 302 295 102 76 56 8 340 352 58 250 234 225 32 112 239 324 46 110 90 63 25 350 348 352 20 14 29 33 352 342 25 39 86 86 104 59 55 52 232 96 312 358 44 59 99 223 130 62 80 82 96 110 102 113 174 73 112 124 144 162 155 135 124 104 87 80 97 126 135 138 138 133 136 133
332 331 331 331 331 333 331 330 331 332 331 322 311 275 56 343 359 53 4 342 324 318 52 21 44 260 291 34 8 340 337 104 78 353 341 310 307 43 33 36 21 347 347 59 77 59 354 111 22 41 30 16 92 257 69 30 70 66 47 64 64 78 78 90 105 102 100 87 101 110 106 105 101 106 96 91 98 102 91 81 76 65 68 90 89 95 113
326 325 326 327 328 327 326 325 329 330 330 303 268 17 54 78 291 43 3 340 322 18 135 141 231 243 80 214 216 357 308 85 117 31 317 320 52 68 44 80 34 31 42 358 36 60 49 42 357 52 316 37 94 54 32 65 69 32 20 57 61 61 77 103 107 112 114 118 117 106 111 118 118 97 89 111 116 104 104 92 81 75 73 83 87 83 63
320 321 323 324 323 322 321 320 327 335 307 331 37 104 168 224 266 330 330 308 322 5 58 357 324 99 51 316 280 224 316 16 326 124 328 356 15 18 6 89 113 42 106 46 239 39 16 278 83 20 33 320 55 52 59 86 119 184 126 76 60 60 52 53 51 77 104 114 122 118 85 63 93 113 105 84 97 117 119 128 129 124 111 113 121 113 110
317 319 320 319 318 320 317 316 324 343 311 296 265 269 276 273 296 307 302 314 307 219 289 59 237 238 131 225 245 42 6 327 349 105 336 310 64 53 358 19 117 55 246 86 342 103 215 94 92 51 276 331 67 23 80 107 151 128 106 95 79 64 54 46 58 58 58 60 75 78 72 75 93 115 129 121 114 129 130 129 145 146 141 151 147 135 109
316 318 316 315 314 315 317 317 305 285 260 283 349 207 199 222 293 268 289 248 254 293 12 157 333 360 280 321 53 306 359 40 309 56 79 304 323 57 65 308 271 79 321 103 215 44 338 61 71 172 7 355 28 70 17 23 67 77 94 102 106 96 85 79 74 74 64 66 76 101 119 104 87 73 77 109 134 117 114 145 147 148 133 112 103 137 126
315 314 313 311 310 308 301 292 289 211 278 253 256 105 110 268 288 305 311 11 38 356 341 284 143 329 64 44 47 293 322 346 22 1 97 263 340 355 347 34 336 64 288 292 14 123 78 291 228 63 194 6 49 57 57 62 63 65 88 103 108 100 64 47 49 74 85 73 81 95 101 123 129 152 140 187 151 100 78 63 73 132 127 156 124 112 101
311 309 308 306 303 296 276 220 224 239 231 303 284 151 205 292 297 259 231 301 113 106 14 282 6 240 189 111 83 273 329 4 343 324 141 75 25 306 30 98 41 264 236 95 90 30 84 259 66 36 216 72 15 106 103 61 57 47 43 55 124 141 157 150 120 79 63 81 71 53 35 8 341 144 125 111 112 110 105 85 27 28 101 107 107 116 104
308 307 303 299 280 238 257 232 187 321 209 225 298 323 297 294 232 210 199 181 248 169 209 289 3 287 123 147 135 308 17 39 296 5 12 41 313 279 41 37 79 275 24 22 37 48 263 248 92 354 320 130 194 111 83 76 74 70 38 3 13 58 134 123 118 119 113 96 97 104 153 226 257 185 204 152 129 114 98 102 88 67 34 86 116 102 115
303 300 306 280 211 194 244 347 298 268 25 313 297 326 283 64 4 303 169 214 205 126 272 178 271 309 1 69 51 300 21 328 350 55 15 332 25 354 354 92 240 62 4 46 345 227 272 58 133 120 51 60 81 64 65 66 66 53 43 42 27 8 43 128 124 116 142 171 172 155 307 260 274 221 121 112 107 110 119 117 110 112 97 103 109 111 110
251 243 225 268 268 341 359 243 91 22 318 278 101 51 295 156 78 329 229 155 82 325 253 90 360 32 61 66 15 335 78 318 332 35 67 324 83 335 20 44 304 53 329 44 302 345 23 328 31 70 76 19 57 10 47 59 53 47 47 40 31 25 26 106 146 148 168 153 153 171 197 118 72 23 32 111 124 127 129 122 123 157 163 133 128 115 125
190 180 223 195 115 236 231 98 62 334 28 11 271 109 308 203 138 84 326 58 330 282 61 56 267 60 86 95 120 341 323 42 52 18 7 354 38 105 276 75 319 72 339 64 268 321 65 343 328 62 49 357 51 14 45 48 59 40 34 29 32 14 14 20 233 134 139 180 153 152 117 99 74 75 89 91 131 127 129 136 168 207 170 145 139 151 183
337 289 316 43 348 219 222 174 220 343 128 223 293 336 27 345 293 171 69 288 181 185 260 128 251 77 26 33 59 71 293 360 8 86 118 107 256 112 13 359 230 67 301 71 283 44 28 23 320 98 251 41 80 44 28 45 44 29 16 6 57 39 10 359 349 198 136 137 44 113 110 98 100 62 25 99 85 168 171 164 189 208 154 135 152 181 185
340 271 328 300 272 266 284 347 49 325 358 315 99 263 201 195 303 8 194 135 93 108 28 33 42 29 22 4 354 116 64 300 243 107 99 75 296 92 248 322 23 95 20 284 288 333 14 4 18 94 247 68 41 34 51 54 40 32 25 9 15 53 21 2 343 336 75 69 21 20 86 102 99 90 48 34 318 152 169 167 139 111 143 177 181 196 151
296 268 196 264 238 276 122 241 228 146 102 8 41 16 320 72 181 210 175 138 251 73 245 275 137 106 28 1 19 86 167 208 59 320 47 129 261 66 51 23 38 342 284 333 46 315 49 271 80 93 136 96 68 58 54 54 53 53 28 20 1 358 37 21 355 107 186 76 58 324 111 111 138 195 103 47 108 139 99 82 96 138 104 67 270 196 153
256 218 176 221 174 263 139 305 83 37 356 283 126 155 186 252 247 217 124 144 332 52 330 106 124 107 140 292 142 349 39 2 38 43 13 27 65 15 81 196 184 234 101 23 52 27 275 34 54 172 163 88 39 42 31 55 69 51 26 1 11 4 355 9 355 352 66 93 81 289 100 86 50 18 128 179 208 154 136 135 128 128 159 211 249 252 164
314 173 187 19 15 249 57 324 307 139 224 199 200 224 178 213 86 63 109 247 67 158 304 332 117 62 119 233 44 15 101 160 3 88 231 34 24 272 135 297 6 11 80 271 329 300 19 70 301 33 65 80 67 54 43 41 64 77 72 3 15 350 345 350 344 7 46 36 302 243 154 115 135 248 165 164 218 155 149 168 164 193 227 242 251 252 161
260 141 114 87 349 302 176 187 149 233 249 178 218 225 103 58 88 109 65 79 97 85 82 19 22 53 88 182 125 175 271 123 316 253 120 108 97 329 57 348 47 20 9 18 24 12 73 177 305 8 354 97 67 62 72 55 24 19 18 15 336 305 310 316 353 2 29 214 264 329 329 102 275 336 16 16 94 198 182 179 175 191 209 219 237 238 266
261 3 248 50 86 228 175 191 206 214 204 205 85 79 89 92 62 67 52 49 75 94 82 28 17 86 64 355 10 358 48 76 102 305 66 32 165 329 61 84 359 9 47 329 282 36 98 255 224 129 56 25 27 10 24 83 94 357 317 321 313 305 19 21 37 15 357 93 19 325 336 297 220 168 164 339 337 57 100 67 42 154 157 205 218 225 250
288 195 130 115 227 172 198 239 226 244 52 80 77 92 114 109 87 59 42 65 75 63 54 19 13 8 11 333 99 201 211 100 43 301 110 256 38 54 38 36 256 251 170 221 282 137 199 175 82 49 13 9 14 1 17 20 6 356 335 318 301 318 110 96 58 256 252 232 190 66 5 351 347 327 282 217 231 231 200 186 202 260 277 289 296 285 129
237 76 259 214 231 223 244 243 206 143 82 60 65 82 79 92 88 76 52 56 46 51 58 55 79 62 256 212 221 303 341 78 83 286 51 74 89 210 89 245 24 300 266 156 208 124 144 128 144 134 74 18 346 18 343 19 16 298 268 261 278 289 202 202 249 213 220 208 181 142 136 228 267 334 339 334 316 275 218 182 185 197 205 247 275 272 252
36 306 283 297 323 284 249 44 67 76 59 69 42 63 79 87 84 45 8 71 89 41 29 43 68 75 271 58 337 41 313 99 163 79 77 189 193 173 127 241 198 199 280 13 72 93 109 128 112 80 41 350 317 301 284 288 249 264 282 288 291 292 273 222 228 245 233 191 188 167 162 157 134 94 312 304 310 319 306 177 180 186 200 204 231 247 239
226 193 254 212 237 267 333 10 77 115 131 131 76 61 72 90 94 58 335 38 89 70 83 154 148 173 4 19 73 358 259 46 31 265 159 227 147 208 190 232 282 69 62 48 111 128 85 77 90 89 50 337 325 331 324 326 333 322 338 337 323 312 338 34 30 25 357 336 171 173 176 174 167 165 186 257 275 49 2 333 306 207 195 207 212 221 226
204 235 251 243 230 254 231 168 113 96 90 90 92 58 84 103 101 102 355 26 89 112 242 139 149 28 123 232 170 11 37 49 241 29 19 315 62 300 319 126 107 113 106 28 1 27 57 78 86 73 39 326 301 281 279 294 307 2 29 2 332 324 347 328 298 263 242 291 270 206 197 161 168 172 171 183 199 149 153 201 342 7 354 338 282 227 224